Year,Month,Day,Hour,Minute,Value (Times are PST for temperature in C)
2021,08,15,00,00,19.30
2021,08,15,00,01,19.30
2021,08,15,00,02,19.30
2021,08,15,00,03,19.20
2021,08,15,00,04,19.30
2021,08,15,00,05,19.20
2021,08,15,00,06,19.20
2021,08,15,00,07,19.20
2021,08,15,00,08,19.20
2021,08,15,00,09,19.20
2021,08,15,00,10,19.20
2021,08,15,00,11,19.10
2021,08,15,00,12,19.10
2021,08,15,00,13,19.10
2021,08,15,00,14,19.10
2021,08,15,00,15,19.10
2021,08,15,00,16,19.10
2021,08,15,00,17,19.10
2021,08,15,00,18,19.10
2021,08,15,00,19,19.10
2021,08,15,00,20,19.10
2021,08,15,00,21,19.10
2021,08,15,00,22,19.10
2021,08,15,00,23,19.10
2021,08,15,00,24,19.10
2021,08,15,00,25,19.10
2021,08,15,00,26,19.10
2021,08,15,00,27,19.10
2021,08,15,00,28,19.10
2021,08,15,00,29,19.10
2021,08,15,00,30,19.10
2021,08,15,00,31,19.10
2021,08,15,00,32,19.10
2021,08,15,00,33,19.10
2021,08,15,00,34,19.10
2021,08,15,00,35,19.10
2021,08,15,00,36,19.10
2021,08,15,00,37,19.10
2021,08,15,00,38,19.10
2021,08,15,00,39,19.10
2021,08,15,00,40,19.00
2021,08,15,00,41,19.00
2021,08,15,00,42,19.00
2021,08,15,00,43,19.00
2021,08,15,00,44,18.90
2021,08,15,00,45,18.90
2021,08,15,00,46,18.90
2021,08,15,00,47,18.90
2021,08,15,00,48,18.90
2021,08,15,00,49,18.80
2021,08,15,00,50,18.80
2021,08,15,00,51,18.80
2021,08,15,00,52,18.70
2021,08,15,00,53,18.70
2021,08,15,00,54,18.60
2021,08,15,00,55,18.60
2021,08,15,00,56,18.60
2021,08,15,00,57,18.60
2021,08,15,00,58,18.60
2021,08,15,00,59,18.60
2021,08,15,01,00,18.50
2021,08,15,01,01,18.50
2021,08,15,01,02,18.50
2021,08,15,01,03,18.50
2021,08,15,01,04,18.50
2021,08,15,01,05,18.40
2021,08,15,01,06,18.40
2021,08,15,01,07,18.40
2021,08,15,01,08,18.40
2021,08,15,01,09,18.40
2021,08,15,01,10,18.40
2021,08,15,01,11,18.30
2021,08,15,01,12,18.30
2021,08,15,01,13,18.30
2021,08,15,01,14,18.30
2021,08,15,01,15,18.30
2021,08,15,01,16,18.30
2021,08,15,01,17,18.30
2021,08,15,01,18,18.30
2021,08,15,01,19,18.20
2021,08,15,01,20,18.20
2021,08,15,01,21,18.20
2021,08,15,01,22,18.20
2021,08,15,01,23,18.20
2021,08,15,01,24,18.20
2021,08,15,01,25,18.20
2021,08,15,01,26,18.20
2021,08,15,01,27,18.10
2021,08,15,01,28,18.20
2021,08,15,01,29,18.20
2021,08,15,01,30,18.10
2021,08,15,01,31,18.10
2021,08,15,01,32,18.10
2021,08,15,01,33,18.10
2021,08,15,01,34,18.10
2021,08,15,01,35,18.10
2021,08,15,01,36,18.10
2021,08,15,01,37,18.00
2021,08,15,01,38,18.00
2021,08,15,01,39,18.00
2021,08,15,01,40,18.00
2021,08,15,01,41,18.00
2021,08,15,01,42,18.00
2021,08,15,01,43,17.90
2021,08,15,01,44,17.90
2021,08,15,01,45,17.90
2021,08,15,01,46,17.90
2021,08,15,01,47,17.90
2021,08,15,01,48,17.80
2021,08,15,01,49,17.80
2021,08,15,01,50,17.80
2021,08,15,01,51,17.80
2021,08,15,01,52,17.80
2021,08,15,01,53,17.80
2021,08,15,01,54,17.80
2021,08,15,01,55,17.80
2021,08,15,01,56,17.80
2021,08,15,01,57,17.80
2021,08,15,01,58,17.80
2021,08,15,01,59,17.80
2021,08,15,02,00,17.80
2021,08,15,02,01,17.80
2021,08,15,02,02,17.80
2021,08,15,02,03,17.90
2021,08,15,02,04,17.90
2021,08,15,02,05,18.00
2021,08,15,02,06,18.10
2021,08,15,02,07,18.10
2021,08,15,02,08,18.10
2021,08,15,02,09,18.10
2021,08,15,02,10,18.10
2021,08,15,02,11,18.10
2021,08,15,02,12,18.10
2021,08,15,02,13,18.00
2021,08,15,02,14,18.00
2021,08,15,02,15,17.90
2021,08,15,02,16,17.90
2021,08,15,02,17,17.80
2021,08,15,02,18,17.80
2021,08,15,02,19,17.80
2021,08,15,02,20,17.80
2021,08,15,02,21,17.80
2021,08,15,02,22,17.70
2021,08,15,02,23,17.70
2021,08,15,02,24,17.70
2021,08,15,02,25,17.60
2021,08,15,02,26,17.60
2021,08,15,02,27,17.60
2021,08,15,02,28,17.60
2021,08,15,02,29,17.60
2021,08,15,02,30,17.60
2021,08,15,02,31,17.60
2021,08,15,02,32,17.60
2021,08,15,02,33,17.60
2021,08,15,02,34,17.60
2021,08,15,02,35,17.60
2021,08,15,02,36,17.60
2021,08,15,02,37,17.50
2021,08,15,02,38,17.50
2021,08,15,02,39,17.50
2021,08,15,02,40,17.50
2021,08,15,02,41,17.50
2021,08,15,02,42,17.50
2021,08,15,02,43,17.40
2021,08,15,02,44,17.40
2021,08,15,02,45,17.50
2021,08,15,02,46,17.50
2021,08,15,02,47,17.50
2021,08,15,02,48,17.60
2021,08,15,02,49,17.60
2021,08,15,02,50,17.60
2021,08,15,02,51,17.60
2021,08,15,02,52,17.60
2021,08,15,02,53,17.50
2021,08,15,02,54,17.50
2021,08,15,02,55,17.50
2021,08,15,02,56,17.40
2021,08,15,02,57,17.40
2021,08,15,02,58,17.40
2021,08,15,02,59,17.40
2021,08,15,03,00,17.40
2021,08,15,03,01,17.40
2021,08,15,03,02,17.40
2021,08,15,03,03,17.40
2021,08,15,03,04,17.30
2021,08,15,03,05,17.40
2021,08,15,03,06,17.30
2021,08,15,03,07,17.30
2021,08,15,03,08,17.30
2021,08,15,03,09,17.30
2021,08,15,03,10,17.30
2021,08,15,03,11,17.30
2021,08,15,03,12,17.30
2021,08,15,03,13,17.20
2021,08,15,03,14,17.20
2021,08,15,03,15,17.20
2021,08,15,03,16,17.10
2021,08,15,03,17,17.10
2021,08,15,03,18,17.10
2021,08,15,03,19,17.10
2021,08,15,03,20,17.10
2021,08,15,03,21,17.10
2021,08,15,03,22,17.10
2021,08,15,03,23,17.10
2021,08,15,03,24,17.00
2021,08,15,03,25,17.10
2021,08,15,03,26,17.10
2021,08,15,03,27,17.00
2021,08,15,03,28,17.00
2021,08,15,03,29,17.00
2021,08,15,03,30,17.10
2021,08,15,03,31,17.00
2021,08,15,03,32,17.00
2021,08,15,03,33,17.00
2021,08,15,03,34,17.00
2021,08,15,03,35,17.00
2021,08,15,03,36,17.00
2021,08,15,03,37,17.00
2021,08,15,03,38,17.00
2021,08,15,03,39,17.00
2021,08,15,03,40,17.10
2021,08,15,03,41,17.10
2021,08,15,03,42,17.00
2021,08,15,03,43,17.00
2021,08,15,03,44,17.00
2021,08,15,03,45,16.90
2021,08,15,03,46,16.90
2021,08,15,03,47,16.90
2021,08,15,03,48,16.90
2021,08,15,03,49,16.90
2021,08,15,03,50,16.90
2021,08,15,03,51,16.80
2021,08,15,03,52,16.80
2021,08,15,03,53,16.80
2021,08,15,03,54,16.80
2021,08,15,03,55,16.80
2021,08,15,03,56,16.80
2021,08,15,03,57,16.80
2021,08,15,03,58,16.80
2021,08,15,03,59,16.70
2021,08,15,04,00,16.70
2021,08,15,04,01,16.70
2021,08,15,04,02,16.70
2021,08,15,04,03,16.70
2021,08,15,04,04,16.60
2021,08,15,04,05,16.60
2021,08,15,04,06,16.60
2021,08,15,04,07,16.60
2021,08,15,04,08,16.60
2021,08,15,04,09,16.60
2021,08,15,04,10,16.60
2021,08,15,04,11,16.60
2021,08,15,04,12,16.60
2021,08,15,04,13,16.60
2021,08,15,04,14,16.50
2021,08,15,04,15,16.50
2021,08,15,04,16,16.50
2021,08,15,04,17,16.50
2021,08,15,04,18,16.40
2021,08,15,04,19,16.40
2021,08,15,04,20,16.40
2021,08,15,04,21,16.30
2021,08,15,04,22,16.30
2021,08,15,04,23,16.30
2021,08,15,04,24,16.30
2021,08,15,04,25,16.30
2021,08,15,04,26,16.30
2021,08,15,04,27,16.30
2021,08,15,04,28,16.20
2021,08,15,04,29,16.30
2021,08,15,04,30,16.20
2021,08,15,04,31,16.20
2021,08,15,04,32,16.20
2021,08,15,04,33,16.20
2021,08,15,04,34,16.20
2021,08,15,04,35,16.20
2021,08,15,04,36,16.20
2021,08,15,04,37,16.10
2021,08,15,04,38,16.10
2021,08,15,04,39,16.10
2021,08,15,04,40,16.10
2021,08,15,04,41,16.10
2021,08,15,04,42,16.10
2021,08,15,04,43,16.20
2021,08,15,04,44,16.20
2021,08,15,04,45,16.20
2021,08,15,04,46,16.20
2021,08,15,04,47,16.20
2021,08,15,04,48,16.20
2021,08,15,04,49,16.20
2021,08,15,04,50,16.20
2021,08,15,04,51,16.10
2021,08,15,04,52,16.10
2021,08,15,04,53,16.10
2021,08,15,04,54,16.10
2021,08,15,04,55,16.10
2021,08,15,04,56,16.10
2021,08,15,04,57,16.10
2021,08,15,04,58,16.10
2021,08,15,04,59,16.10
2021,08,15,05,00,16.10
2021,08,15,05,01,16.10
2021,08,15,05,02,16.00
2021,08,15,05,03,16.00
2021,08,15,05,04,16.00
2021,08,15,05,05,16.00
2021,08,15,05,06,16.10
2021,08,15,05,07,16.10
2021,08,15,05,08,16.10
2021,08,15,05,09,16.10
2021,08,15,05,10,16.10
2021,08,15,05,11,16.10
2021,08,15,05,12,16.10
2021,08,15,05,13,16.10
2021,08,15,05,14,16.10
2021,08,15,05,15,16.00
2021,08,15,05,16,16.00
2021,08,15,05,17,16.00
2021,08,15,05,18,16.00
2021,08,15,05,19,16.00
2021,08,15,05,20,16.00
2021,08,15,05,21,16.00
2021,08,15,05,22,16.00
2021,08,15,05,23,16.00
2021,08,15,05,24,16.00
2021,08,15,05,25,16.00
2021,08,15,05,26,16.00
2021,08,15,05,27,16.10
2021,08,15,05,28,16.10
2021,08,15,05,29,16.20
2021,08,15,05,30,16.20
2021,08,15,05,31,16.20
2021,08,15,05,32,16.20
2021,08,15,05,33,16.30
2021,08,15,05,34,16.30
2021,08,15,05,35,16.30
2021,08,15,05,36,16.30
2021,08,15,05,37,16.30
2021,08,15,05,38,16.30
2021,08,15,05,39,16.30
2021,08,15,05,40,16.30
2021,08,15,05,41,16.30
2021,08,15,05,42,16.20
2021,08,15,05,43,16.20
2021,08,15,05,44,16.20
2021,08,15,05,45,16.20
2021,08,15,05,46,16.20
2021,08,15,05,47,16.20
2021,08,15,05,48,16.20
2021,08,15,05,49,16.20
2021,08,15,05,50,16.20
2021,08,15,05,51,16.20
2021,08,15,05,52,16.20
2021,08,15,05,53,16.20
2021,08,15,05,54,16.20
2021,08,15,05,55,16.10
2021,08,15,05,56,16.10
2021,08,15,05,57,16.10
2021,08,15,05,58,16.10
2021,08,15,05,59,16.00
2021,08,15,06,00,16.00
2021,08,15,06,01,16.00
2021,08,15,06,02,16.00
2021,08,15,06,03,16.00
2021,08,15,06,04,16.00
2021,08,15,06,05,15.90
2021,08,15,06,06,15.90
2021,08,15,06,07,15.90
2021,08,15,06,08,15.90
2021,08,15,06,09,15.80
2021,08,15,06,10,15.80
2021,08,15,06,11,15.80
2021,08,15,06,12,15.80
2021,08,15,06,13,15.70
2021,08,15,06,14,15.70
2021,08,15,06,15,15.70
2021,08,15,06,16,15.60
2021,08,15,06,17,15.60
2021,08,15,06,18,15.60
2021,08,15,06,19,15.60
2021,08,15,06,20,15.50
2021,08,15,06,21,15.50
2021,08,15,06,22,15.40
2021,08,15,06,23,15.40
2021,08,15,06,24,15.40
2021,08,15,06,25,15.40
2021,08,15,06,26,15.40
2021,08,15,06,27,15.50
2021,08,15,06,28,15.50
2021,08,15,06,29,15.50
2021,08,15,06,30,15.60
2021,08,15,06,31,15.60
2021,08,15,06,32,15.60
2021,08,15,06,33,15.60
2021,08,15,06,34,15.70
2021,08,15,06,35,15.70
2021,08,15,06,36,15.70
2021,08,15,06,37,15.70
2021,08,15,06,38,15.70
2021,08,15,06,39,15.70
2021,08,15,06,40,15.80
2021,08,15,06,41,15.80
2021,08,15,06,42,15.90
2021,08,15,06,43,15.90
2021,08,15,06,44,15.90
2021,08,15,06,45,16.00
2021,08,15,06,46,16.00
2021,08,15,06,47,16.10
2021,08,15,06,48,16.10
2021,08,15,06,49,16.10
2021,08,15,06,50,16.10
2021,08,15,06,51,16.20
2021,08,15,06,52,16.20
2021,08,15,06,53,16.20
2021,08,15,06,54,16.30
2021,08,15,06,55,16.30
2021,08,15,06,56,16.30
2021,08,15,06,57,16.30
2021,08,15,06,58,16.30
2021,08,15,06,59,16.30
2021,08,15,07,00,16.30
2021,08,15,07,01,16.30
2021,08,15,07,02,16.30
2021,08,15,07,03,16.30
2021,08,15,07,04,16.40
2021,08,15,07,05,16.40
2021,08,15,07,06,16.50
2021,08,15,07,07,16.60
2021,08,15,07,08,16.60
2021,08,15,07,09,16.70
2021,08,15,07,10,16.70
2021,08,15,07,11,16.70
2021,08,15,07,12,16.80
2021,08,15,07,13,16.80
2021,08,15,07,14,16.80
2021,08,15,07,15,16.90
2021,08,15,07,16,16.90
2021,08,15,07,17,17.00
2021,08,15,07,18,17.10
2021,08,15,07,19,17.20
2021,08,15,07,20,17.30
2021,08,15,07,21,17.30
2021,08,15,07,22,17.40
2021,08,15,07,23,17.50
2021,08,15,07,24,17.60
2021,08,15,07,25,17.70
2021,08,15,07,26,17.80
2021,08,15,07,27,17.90
2021,08,15,07,28,18.00
2021,08,15,07,29,18.10
2021,08,15,07,30,18.10
2021,08,15,07,31,18.20
2021,08,15,07,32,18.30
2021,08,15,07,33,18.30
2021,08,15,07,34,18.40
2021,08,15,07,35,18.40
2021,08,15,07,36,18.40
2021,08,15,07,37,18.50
2021,08,15,07,38,18.50
2021,08,15,07,39,18.50
2021,08,15,07,40,18.60
2021,08,15,07,41,18.60
2021,08,15,07,42,18.70
2021,08,15,07,43,18.80
2021,08,15,07,44,18.80
2021,08,15,07,45,18.90
2021,08,15,07,46,19.00
2021,08,15,07,47,19.10
2021,08,15,07,48,19.20
2021,08,15,07,49,19.20
2021,08,15,07,50,19.30
2021,08,15,07,51,19.40
2021,08,15,07,52,19.50
2021,08,15,07,53,19.60
2021,08,15,07,54,19.70
2021,08,15,07,55,19.80
2021,08,15,07,56,19.90
2021,08,15,07,57,19.90
2021,08,15,07,58,19.90
2021,08,15,07,59,20.00
2021,08,15,08,00,20.10
2021,08,15,08,01,20.10
2021,08,15,08,02,20.20
2021,08,15,08,03,20.30
2021,08,15,08,04,20.40
2021,08,15,08,05,20.40
2021,08,15,08,06,20.50
2021,08,15,08,07,20.50
2021,08,15,08,08,20.60
2021,08,15,08,09,20.60
2021,08,15,08,10,20.60
2021,08,15,08,11,20.60
2021,08,15,08,12,20.60
2021,08,15,08,13,20.60
2021,08,15,08,14,20.60
2021,08,15,08,15,20.70
2021,08,15,08,16,20.70
2021,08,15,08,17,20.70
2021,08,15,08,18,20.70
2021,08,15,08,19,20.70
2021,08,15,08,20,20.70
2021,08,15,08,21,20.70
2021,08,15,08,22,20.70
2021,08,15,08,23,20.80
2021,08,15,08,24,20.80
2021,08,15,08,25,20.90
2021,08,15,08,26,20.90
2021,08,15,08,27,20.90
2021,08,15,08,28,20.90
2021,08,15,08,29,20.90
2021,08,15,08,30,21.00
2021,08,15,08,31,21.00
2021,08,15,08,32,21.00
2021,08,15,08,33,21.00
2021,08,15,08,34,21.00
2021,08,15,08,35,21.00
2021,08,15,08,36,21.00
2021,08,15,08,37,21.10
2021,08,15,08,38,21.10
2021,08,15,08,39,21.10
2021,08,15,08,40,21.10
2021,08,15,08,41,21.10
2021,08,15,08,42,21.10
2021,08,15,08,43,21.10
2021,08,15,08,44,21.10
2021,08,15,08,45,21.10
2021,08,15,08,46,21.20
2021,08,15,08,47,21.20
2021,08,15,08,48,21.20
2021,08,15,08,49,21.20
2021,08,15,08,50,21.30
2021,08,15,08,51,21.30
2021,08,15,08,52,21.30
2021,08,15,08,53,21.30
2021,08,15,08,54,21.30
2021,08,15,08,55,21.30
2021,08,15,08,56,21.30
2021,08,15,08,57,21.40
2021,08,15,08,58,21.40
2021,08,15,08,59,21.50
2021,08,15,09,00,21.50
2021,08,15,09,01,21.60
2021,08,15,09,02,21.60
2021,08,15,09,03,21.60
2021,08,15,09,04,21.60
2021,08,15,09,05,21.60
2021,08,15,09,06,21.70
2021,08,15,09,07,21.70
2021,08,15,09,08,21.70
2021,08,15,09,09,21.70
2021,08,15,09,10,21.70
2021,08,15,09,11,21.80
2021,08,15,09,12,21.80
2021,08,15,09,13,21.90
2021,08,15,09,14,21.90
2021,08,15,09,15,21.90
2021,08,15,09,16,21.90
2021,08,15,09,17,22.00
2021,08,15,09,18,22.00
2021,08,15,09,19,22.10
2021,08,15,09,20,22.10
2021,08,15,09,21,22.10
2021,08,15,09,22,22.10
2021,08,15,09,23,22.20
2021,08,15,09,24,22.20
2021,08,15,09,25,22.10
2021,08,15,09,26,22.10
2021,08,15,09,27,22.00
2021,08,15,09,28,22.00
2021,08,15,09,29,21.90
2021,08,15,09,30,21.80
2021,08,15,09,31,21.80
2021,08,15,09,32,21.70
2021,08,15,09,33,21.60
2021,08,15,09,34,21.50
2021,08,15,09,35,21.50
2021,08,15,09,36,21.40
2021,08,15,09,37,21.40
2021,08,15,09,38,21.40
2021,08,15,09,39,21.30
2021,08,15,09,40,21.30
2021,08,15,09,41,21.30
2021,08,15,09,42,21.30
2021,08,15,09,43,21.30
2021,08,15,09,44,21.30
2021,08,15,09,45,21.30
2021,08,15,09,46,21.30
2021,08,15,09,47,21.30
2021,08,15,09,48,21.40
2021,08,15,09,49,21.50
2021,08,15,09,50,21.50
2021,08,15,09,51,21.50
2021,08,15,09,52,21.50
2021,08,15,09,53,21.60
2021,08,15,09,54,21.60
2021,08,15,09,55,21.70
2021,08,15,09,56,21.70
2021,08,15,09,57,21.70
2021,08,15,09,58,21.70
2021,08,15,09,59,21.70
2021,08,15,10,00,21.70
2021,08,15,10,01,21.60
2021,08,15,10,02,21.60
2021,08,15,10,03,21.60
2021,08,15,10,04,21.70
2021,08,15,10,05,21.70
2021,08,15,10,06,21.80
2021,08,15,10,07,21.80
2021,08,15,10,08,21.90
2021,08,15,10,09,22.00
2021,08,15,10,10,22.00
2021,08,15,10,11,22.10
2021,08,15,10,12,22.20
2021,08,15,10,13,22.20
2021,08,15,10,14,22.30
2021,08,15,10,15,22.30
2021,08,15,10,16,22.30
2021,08,15,10,17,22.30
2021,08,15,10,18,22.40
2021,08,15,10,19,22.40
2021,08,15,10,20,22.40
2021,08,15,10,21,22.40
2021,08,15,10,22,22.40
2021,08,15,10,23,22.40
2021,08,15,10,24,22.30
2021,08,15,10,25,22.40
2021,08,15,10,26,22.50
2021,08,15,10,27,22.50
2021,08,15,10,28,22.60
2021,08,15,10,29,22.70
2021,08,15,10,30,22.70
2021,08,15,10,31,22.80
2021,08,15,10,32,22.80
2021,08,15,10,33,22.80
2021,08,15,10,34,22.90
2021,08,15,10,35,22.80
2021,08,15,10,36,22.80
2021,08,15,10,37,22.70
2021,08,15,10,38,22.60
2021,08,15,10,39,22.60
2021,08,15,10,40,22.60
2021,08,15,10,41,22.60
2021,08,15,10,42,22.70
2021,08,15,10,43,22.70
2021,08,15,10,44,22.80
2021,08,15,10,45,22.80
2021,08,15,10,46,22.80
2021,08,15,10,47,22.90
2021,08,15,10,48,22.90
2021,08,15,10,49,22.90
2021,08,15,10,50,22.90
2021,08,15,10,51,22.90
2021,08,15,10,52,23.00
2021,08,15,10,53,23.00
2021,08,15,10,54,23.10
2021,08,15,10,55,23.10
2021,08,15,10,56,23.20
2021,08,15,10,57,23.30
2021,08,15,10,58,23.30
2021,08,15,10,59,23.40
2021,08,15,11,00,23.40
2021,08,15,11,01,23.50
2021,08,15,11,02,23.60
2021,08,15,11,03,23.70
2021,08,15,11,04,23.80
2021,08,15,11,05,24.00
2021,08,15,11,06,24.10
2021,08,15,11,07,24.20
2021,08,15,11,08,24.30
2021,08,15,11,09,24.40
2021,08,15,11,10,24.50
2021,08,15,11,11,24.50
2021,08,15,11,12,24.50
2021,08,15,11,13,24.50
2021,08,15,11,14,24.60
2021,08,15,11,15,24.50
2021,08,15,11,16,24.40
2021,08,15,11,17,24.10
2021,08,15,11,18,23.90
2021,08,15,11,19,23.70
2021,08,15,11,20,23.60
2021,08,15,11,21,23.50
2021,08,15,11,22,23.40
2021,08,15,11,23,23.50
2021,08,15,11,24,23.50
2021,08,15,11,25,23.60
2021,08,15,11,26,23.70
2021,08,15,11,27,23.70
2021,08,15,11,28,23.80
2021,08,15,11,29,23.80
2021,08,15,11,30,24.00
2021,08,15,11,31,24.00
2021,08,15,11,32,24.10
2021,08,15,11,33,24.10
2021,08,15,11,34,24.20
2021,08,15,11,35,24.30
2021,08,15,11,36,24.30
2021,08,15,11,37,24.40
2021,08,15,11,38,24.40
2021,08,15,11,39,24.40
2021,08,15,11,40,24.30
2021,08,15,11,41,24.20
2021,08,15,11,42,24.10
2021,08,15,11,43,24.10
2021,08,15,11,44,24.00
2021,08,15,11,45,24.10
2021,08,15,11,46,24.00
2021,08,15,11,47,23.90
2021,08,15,11,48,23.80
2021,08,15,11,49,23.70
2021,08,15,11,50,23.60
2021,08,15,11,51,23.50
2021,08,15,11,52,23.30
2021,08,15,11,53,23.30
2021,08,15,11,54,23.30
2021,08,15,11,55,23.30
2021,08,15,11,56,23.30
2021,08,15,11,57,23.40
2021,08,15,11,58,23.40
2021,08,15,11,59,23.40
2021,08,15,12,00,23.40
2021,08,15,12,01,23.40
2021,08,15,12,02,23.50
2021,08,15,12,03,23.60
2021,08,15,12,04,23.70
2021,08,15,12,05,23.70
2021,08,15,12,06,23.80
2021,08,15,12,07,23.80
2021,08,15,12,08,23.90
2021,08,15,12,09,24.00
2021,08,15,12,10,24.00
2021,08,15,12,11,24.10
2021,08,15,12,12,24.10
2021,08,15,12,13,24.20
2021,08,15,12,14,24.30
2021,08,15,12,15,24.40
2021,08,15,12,16,24.40
2021,08,15,12,17,24.50
2021,08,15,12,18,24.50
2021,08,15,12,19,24.60
2021,08,15,12,20,24.70
2021,08,15,12,21,24.70
2021,08,15,12,22,24.80
2021,08,15,12,23,24.80
2021,08,15,12,24,24.90
2021,08,15,12,25,25.00
2021,08,15,12,26,25.00
2021,08,15,12,27,25.10
2021,08,15,12,28,25.20
2021,08,15,12,29,25.40
2021,08,15,12,30,25.50
2021,08,15,12,31,25.60
2021,08,15,12,32,25.70
2021,08,15,12,33,25.70
2021,08,15,12,34,25.70
2021,08,15,12,35,25.70
2021,08,15,12,36,25.60
2021,08,15,12,37,25.60
2021,08,15,12,38,25.70
2021,08,15,12,39,25.90
2021,08,15,12,40,26.00
2021,08,15,12,41,26.10
2021,08,15,12,42,26.20
2021,08,15,12,43,26.30
2021,08,15,12,44,26.40
2021,08,15,12,45,26.40
2021,08,15,12,46,26.50
2021,08,15,12,47,26.50
2021,08,15,12,48,26.50
2021,08,15,12,49,26.50
2021,08,15,12,50,26.40
2021,08,15,12,51,26.40
2021,08,15,12,52,26.30
2021,08,15,12,53,26.20
2021,08,15,12,54,26.20
2021,08,15,12,55,26.10
2021,08,15,12,56,26.00
2021,08,15,12,57,26.00
2021,08,15,12,58,26.00
2021,08,15,12,59,25.90
2021,08,15,13,00,25.80
2021,08,15,13,01,25.80
2021,08,15,13,02,25.80
2021,08,15,13,03,25.90
2021,08,15,13,04,25.90
2021,08,15,13,05,26.00
2021,08,15,13,06,26.10
2021,08,15,13,07,26.20
2021,08,15,13,08,26.30
2021,08,15,13,09,26.30
2021,08,15,13,10,26.30
2021,08,15,13,11,26.20
2021,08,15,13,12,26.20
2021,08,15,13,13,26.10
2021,08,15,13,14,26.10
2021,08,15,13,15,26.10
2021,08,15,13,16,26.10
2021,08,15,13,17,26.20
2021,08,15,13,18,26.20
2021,08,15,13,19,26.30
2021,08,15,13,20,26.30
2021,08,15,13,21,26.30
2021,08,15,13,22,26.30
2021,08,15,13,23,26.30
2021,08,15,13,24,26.30
2021,08,15,13,25,26.30
2021,08,15,13,26,26.20
2021,08,15,13,27,26.20
2021,08,15,13,28,26.20
2021,08,15,13,29,26.20
2021,08,15,13,30,26.30
2021,08,15,13,31,26.30
2021,08,15,13,32,26.30
2021,08,15,13,33,26.30
2021,08,15,13,34,26.40
2021,08,15,13,35,26.40
2021,08,15,13,36,26.50
2021,08,15,13,37,26.60
2021,08,15,13,38,26.70
2021,08,15,13,39,26.80
2021,08,15,13,40,26.80
2021,08,15,13,41,26.80
2021,08,15,13,42,26.80
2021,08,15,13,43,26.70
2021,08,15,13,44,26.80
2021,08,15,13,45,26.80
2021,08,15,13,46,26.80
2021,08,15,13,47,26.90
2021,08,15,13,48,27.00
2021,08,15,13,49,27.10
2021,08,15,13,50,27.10
2021,08,15,13,51,27.20
2021,08,15,13,52,27.20
2021,08,15,13,53,27.20
2021,08,15,13,54,27.20
2021,08,15,13,55,27.20
2021,08,15,13,56,27.20
2021,08,15,13,57,27.20
2021,08,15,13,58,27.20
2021,08,15,13,59,27.20
2021,08,15,14,00,27.20
2021,08,15,14,01,27.10
2021,08,15,14,02,27.00
2021,08,15,14,03,26.90
2021,08,15,14,04,26.90
2021,08,15,14,05,26.80
2021,08,15,14,06,26.70
2021,08,15,14,07,26.70
2021,08,15,14,08,26.70
2021,08,15,14,09,26.70
2021,08,15,14,10,26.80
2021,08,15,14,11,26.90
2021,08,15,14,12,26.90
2021,08,15,14,13,27.00
2021,08,15,14,14,27.10
2021,08,15,14,15,27.20
2021,08,15,14,16,27.20
2021,08,15,14,17,27.20
2021,08,15,14,18,27.10
2021,08,15,14,19,26.90
2021,08,15,14,20,26.70
2021,08,15,14,21,26.50
2021,08,15,14,22,26.50
2021,08,15,14,23,26.40
2021,08,15,14,24,26.40
2021,08,15,14,25,26.30
2021,08,15,14,26,26.30
2021,08,15,14,27,26.40
2021,08,15,14,28,26.50
2021,08,15,14,29,26.60
2021,08,15,14,30,26.60
2021,08,15,14,31,26.60
2021,08,15,14,32,26.60
2021,08,15,14,33,26.60
2021,08,15,14,34,26.60
2021,08,15,14,35,26.70
2021,08,15,14,36,26.60
2021,08,15,14,37,26.50
2021,08,15,14,38,26.40
2021,08,15,14,39,26.40
2021,08,15,14,40,26.40
2021,08,15,14,41,26.40
2021,08,15,14,42,26.40
2021,08,15,14,43,26.40
2021,08,15,14,44,26.50
2021,08,15,14,45,26.60
2021,08,15,14,46,26.70
2021,08,15,14,47,26.70
2021,08,15,14,48,26.80
2021,08,15,14,49,26.90
2021,08,15,14,50,26.90
2021,08,15,14,51,26.90
2021,08,15,14,52,26.90
2021,08,15,14,53,26.80
2021,08,15,14,54,26.80
2021,08,15,14,55,26.80
2021,08,15,14,56,26.90
2021,08,15,14,57,27.00
2021,08,15,14,58,27.10
2021,08,15,14,59,27.30
2021,08,15,15,00,27.30
2021,08,15,15,01,27.30
2021,08,15,15,02,27.30
2021,08,15,15,03,27.30
2021,08,15,15,04,27.50
2021,08,15,15,05,27.70
2021,08,15,15,06,27.70
2021,08,15,15,07,27.70
2021,08,15,15,08,27.70
2021,08,15,15,09,27.70
2021,08,15,15,10,27.80
2021,08,15,15,11,27.80
2021,08,15,15,12,27.70
2021,08,15,15,13,27.60
2021,08,15,15,14,27.30
2021,08,15,15,15,27.10
2021,08,15,15,16,26.90
2021,08,15,15,17,26.70
2021,08,15,15,18,26.60
2021,08,15,15,19,26.50
2021,08,15,15,20,26.40
2021,08,15,15,21,26.30
2021,08,15,15,22,26.30
2021,08,15,15,23,26.20
2021,08,15,15,24,26.20
2021,08,15,15,25,26.20
2021,08,15,15,26,26.10
2021,08,15,15,27,26.10
2021,08,15,15,28,25.90
2021,08,15,15,29,25.90
2021,08,15,15,30,25.90
2021,08,15,15,31,26.00
2021,08,15,15,32,26.20
2021,08,15,15,33,26.20
2021,08,15,15,34,26.40
2021,08,15,15,35,26.40
2021,08,15,15,36,26.30
2021,08,15,15,37,26.30
2021,08,15,15,38,26.20
2021,08,15,15,39,26.10
2021,08,15,15,40,26.10
2021,08,15,15,41,26.10
2021,08,15,15,42,26.20
2021,08,15,15,43,26.20
2021,08,15,15,44,26.20
2021,08,15,15,45,26.20
2021,08,15,15,46,26.30
2021,08,15,15,47,26.40
2021,08,15,15,48,26.40
2021,08,15,15,49,26.50
2021,08,15,15,50,26.60
2021,08,15,15,51,26.60
2021,08,15,15,52,26.60
2021,08,15,15,53,26.70
2021,08,15,15,54,26.70
2021,08,15,15,55,26.80
2021,08,15,15,56,26.90
2021,08,15,15,57,27.00
2021,08,15,15,58,27.20
2021,08,15,15,59,27.30
2021,08,15,16,00,27.40
2021,08,15,16,01,27.40
2021,08,15,16,02,27.40
2021,08,15,16,03,27.30
2021,08,15,16,04,27.30
2021,08,15,16,05,27.30
2021,08,15,16,06,27.30
2021,08,15,16,07,27.10
2021,08,15,16,08,26.90
2021,08,15,16,09,26.90
2021,08,15,16,10,26.90
2021,08,15,16,11,26.90
2021,08,15,16,12,26.80
2021,08,15,16,13,26.90
2021,08,15,16,14,26.90
2021,08,15,16,15,26.90
2021,08,15,16,16,27.00
2021,08,15,16,17,27.00
2021,08,15,16,18,27.10
2021,08,15,16,19,27.10
2021,08,15,16,20,27.10
2021,08,15,16,21,27.00
2021,08,15,16,22,26.80
2021,08,15,16,23,26.50
2021,08,15,16,24,26.20
2021,08,15,16,25,26.00
2021,08,15,16,26,26.00
2021,08,15,16,27,25.90
2021,08,15,16,28,25.80
2021,08,15,16,29,25.70
2021,08,15,16,30,25.60
2021,08,15,16,31,25.50
2021,08,15,16,32,25.40
2021,08,15,16,33,25.40
2021,08,15,16,34,25.40
2021,08,15,16,35,25.30
2021,08,15,16,36,25.30
2021,08,15,16,37,25.20
2021,08,15,16,38,25.20
2021,08,15,16,39,25.30
2021,08,15,16,40,25.30
2021,08,15,16,41,25.30
2021,08,15,16,42,25.30
2021,08,15,16,43,25.20
2021,08,15,16,44,25.20
2021,08,15,16,45,25.10
2021,08,15,16,46,25.00
2021,08,15,16,47,24.90
2021,08,15,16,48,24.80
2021,08,15,16,49,24.70
2021,08,15,16,50,24.50
2021,08,15,16,51,24.40
2021,08,15,16,52,24.30
2021,08,15,16,53,24.00
2021,08,15,16,54,23.90
2021,08,15,16,55,23.70
2021,08,15,16,56,23.70
2021,08,15,16,57,23.50
2021,08,15,16,58,23.40
2021,08,15,16,59,23.30
2021,08,15,17,00,23.20
2021,08,15,17,01,23.00
2021,08,15,17,02,22.90
2021,08,15,17,03,22.90
2021,08,15,17,04,22.80
2021,08,15,17,05,22.80
2021,08,15,17,06,22.70
2021,08,15,17,07,22.70
2021,08,15,17,08,22.70
2021,08,15,17,09,22.70
2021,08,15,17,10,22.60
2021,08,15,17,11,22.60
2021,08,15,17,12,22.50
2021,08,15,17,13,22.50
2021,08,15,17,14,22.40
2021,08,15,17,15,22.40
2021,08,15,17,16,22.40
2021,08,15,17,17,22.40
2021,08,15,17,18,22.40
2021,08,15,17,19,22.40